DJ8HS-13 Weather Reports


time (UTC)temp
C
wind
direction
speed
KPH
gust
KPH
rain 1hr
cm
rain 24hr
cm
rain mn
cm
humidity
%
barometer
mb
20260503233937 15 319 0.0 0.0 0.00 0.00 0.00 64
20260503233437 15 319 0.0 0.0 0.00 0.00 0.00 64
20260503232937 16 319 0.0 0.0 0.00 0.00 0.00 64
20260503232437 16 319 0.0 0.0 0.00 0.00 0.00 64
20260503231937 16 319 0.0 0.0 0.00 0.00 0.00 64
20260503231437 16 319 0.0 0.0 0.00 0.00 0.00 64
20260503230937 16 319 0.0 0.0 0.00 0.00 0.00 64
20260503230437 16 319 0.0 0.0 0.00 0.00 0.00 64
20260503225937 16 319 0.0 0.0 0.00 0.00 0.00 63
20260503225437 16 319 0.0 0.0 0.00 0.00 0.00 63
20260503224937 16 319 0.0 0.0 0.00 0.00 0.00 62
20260503224437 16 319 0.0 0.0 0.00 0.00 0.00 62
20260503223937 16 319 0.0 0.0 0.00 0.00 0.00 61
20260503223437 16 319 0.0 0.0 0.00 0.00 0.00 62
20260503222937 16 319 0.0 0.0 0.00 0.00 0.00 62
20260503222437 16 319 0.0 0.0 0.00 0.00 0.00 62
20260503221937 16 319 0.0 0.0 0.00 0.00 0.00 62
20260503221437 16 319 0.0 0.0 0.00 0.00 0.00 62
20260503220937 16 319 0.0 0.0 0.00 0.00 0.00 61
20260503220437 16 319 0.0 0.0 0.00 0.00 0.00 61
20260503215937 17 319 0.0 0.0 0.00 0.00 0.00 61
20260503215437 17 319 0.0 0.0 0.00 0.00 0.00 60
20260503214937 17 319 0.0 0.0 0.00 0.00 0.00 59
20260503214437 17 319 0.0 0.0 0.00 0.00 0.00 59
20260503213937 17 319 0.0 0.0 0.00 0.00 0.00 58
20260503213437 17 319 0.0 0.0 0.00 0.00 0.00 57
20260503212937 17 319 0.0 0.0 0.00 0.00 0.00 57
20260503212437 17 319 0.0 0.0 0.00 0.00 0.00 57
20260503211937 17 319 0.0 0.0 0.00 0.00 0.00 57
20260503211437 17 319 0.0 0.0 0.00 0.00 0.00 57
20260503210937 17 319 0.0 0.0 0.00 0.00 0.00 56
20260503210437 17 319 0.0 0.0 0.00 0.00 0.00 56
20260503205937 17 319 0.0 0.0 0.00 0.00 0.00 55
20260503205437 17 319 0.0 0.0 0.00 0.00 0.00 55
20260503204937 18 319 0.0 0.0 0.00 0.00 0.00 54
20260503204437 18 319 0.0 0.0 0.00 0.00 0.00 53
20260503203937 18 319 0.0 0.0 0.00 0.00 0.00 52
20260503203437 18 319 0.0 0.0 0.00 0.00 0.00 51
20260503202937 18 319 0.0 0.0 0.00 0.00 0.00 50
20260503202437 18 319 0.0 1.6 0.00 0.00 0.00 49
20260503201937 18 279 0.0 1.6 0.00 0.00 0.00 49
20260503201437 18 244 1.6 3.2 0.00 0.00 0.00 49
20260503200937 18 171 0.0 6.4 0.00 0.00 0.00 49
20260503200437 18 1 0.0 9.7 0.00 0.00 0.00 48
20260503195937 18 262 0.0 6.4 0.00 0.00 0.00 48
20260503195437 18 184 1.6 9.7 0.00 0.00 0.00 47
20260503194937 19 217 1.6 11.3 0.00 0.00 0.00 45
20260503194437 19 147 1.6 8.0 0.00 0.00 0.00 42
20260503193937 20 146 6.4 11.3 0.00 0.00 0.00 41
20260503193437 20 199 0.0 9.7 0.00 0.00 0.00 40
20260503192937 20 270 4.8 12.9 0.00 0.00 0.00 38
20260503192437 20 250 4.8 9.7 0.00 0.00 0.00 38
20260503191937 20 292 0.0 11.3 0.00 0.00 0.00 37
20260503191437 20 284 1.6 16.1 0.00 0.00 0.00 36
20260503190937 20 282 11.3 19.3 0.00 0.00 0.00 36
20260503190437 20 241 1.6 12.9 0.00 0.00 0.00 37
20260503185937 21 4 1.6 8.0 0.00 0.00 0.00 38
20260503185437 21 281 0.0 8.0 0.00 0.00 0.00 39
20260503184937 21 270 1.6 8.0 0.00 0.00 0.00 38
20260503184437 21 219 0.0 14.5 0.00 0.00 0.00 38
20260503183937 21 248 0.0 11.3 0.00 0.00 0.00 37
20260503183437 21 70 1.6 14.5 0.00 0.00 0.00 37
20260503182937 21 336 0.0 12.9 0.00 0.00 0.00 36
20260503182437 21 227 4.8 4.8 0.00 0.00 0.00 36
20260503181937 21 164 0.0 4.8 0.00 0.00 0.00 35
20260503181437 22 234 0.0 9.7 0.00 0.00 0.00 34
20260503180937 22 274 6.4 9.7 0.00 0.00 0.00 34
20260503180437 22 285 0.0 8.0 0.00 0.00 0.00 33
20260503175937 22 344 0.0 9.7 0.00 0.00 0.00 33
20260503175437 22 226 0.0 8.0 0.00 0.00 0.00 33
20260503174937 22 246 8.0 14.5 0.00 0.00 0.00 32
20260503174437 22 220 1.6 8.0 0.00 0.00 0.00 32
20260503173937 22 225 0.0 8.0 0.00 0.00 0.00 31
20260503173437 23 285 0.0 4.8 0.00 0.00 0.00 31
20260503172937 23 278 1.6 9.7 0.00 0.00 0.00 30
20260503172437 23 260 0.0 4.8 0.00 0.00 0.00 30
20260503171937 23 341 0.0 4.8 0.00 0.00 0.00 29
20260503171437 23 233 1.6 8.0 0.00 0.00 0.00 29
20260503170937 23 236 0.0 4.8 0.00 0.00 0.00 29
20260503170437 23 322 0.0 8.0 0.00 0.00 0.00 28
20260503150938 25 268 1.6 12.9 0.00 0.00 0.00 26
20260503150438 25 240 0.0 9.7 0.00 0.00 0.00 26
20260503130938 25 201 0.0 4.8 0.00 0.00 0.00 31
20260503130438 25 160 0.0 8.0 0.00 0.00 0.00 30
20260503110438 27 154 1.6 12.9 0.00 0.00 0.00 22
20260503090438 22 181 0.0 3.2 0.00 0.00 0.00 43
20260503081438 18 182 0.0 3.2 0.00 0.00 0.00 56
20260503080938 18 101 0.0 1.6 0.00 0.00 0.00 57
20260503080438 18 133 0.0 1.6 0.00 0.00 0.00 58
20260503072938 16 123 0.0 0.0 0.00 0.00 0.00 68
20260503072438 16 123 0.0 0.0 0.00 0.00 0.00 68
20260503071938 16 123 0.0 0.0 0.00 0.00 0.00 68
20260503071438 15 123 0.0 0.0 0.00 0.00 0.00 69
20260503070938 15 123 0.0 3.2 0.00 0.00 0.00 69
20260503070438 15 203 0.0 0.0 0.00 0.00 0.00 69
20260503054939 13 77 0.0 1.6 0.00 0.00 0.00 78
20260503054439 13 324 0.0 0.0 0.00 0.00 0.00 78
20260503053939 13 324 0.0 0.0 0.00 0.00 0.00 78
20260503053439 13 324 0.0 0.0 0.00 0.00 0.00 78
20260503052939 13 324 0.0 0.0 0.00 0.00 0.00 78
20260503052439 12 324 0.0 1.6 0.00 0.00 0.00 78
20260503051939 12 164 0.0 0.0 0.00 0.00 0.00 78
20260503051439 12 164 0.0 0.0 0.00 0.00 0.00 78
20260503050939 12 164 0.0 0.0 0.00 0.00 0.00 78
20260503050439 12 164 0.0 0.0 0.00 0.00 0.00 78
20260503045939 12 164 0.0 0.0 0.00 0.00 0.00 78
20260503045439 12 164 0.0 0.0 0.00 0.00 0.00 78
20260503044939 12 164 0.0 0.0 0.00 0.00 0.00 78
20260503044439 12 164 0.0 0.0 0.00 0.00 0.00 78
20260503043939 12 164 0.0 0.0 0.00 0.00 0.00 79
20260503043439 12 164 0.0 0.0 0.00 0.00 0.00 78
20260503042939 11 164 0.0 0.0 0.00 0.00 0.00 78
20260503042439 11 164 0.0 0.0 0.00 0.00 0.00 78
20260503041939 12 164 0.0 0.0 0.00 0.00 0.00 78
20260503041439 11 164 0.0 0.0 0.00 0.00 0.00 78
20260503040939 11 164 0.0 0.0 0.00 0.00 0.00 78
20260503040439 11 164 0.0 0.0 0.00 0.00 0.00 78
20260503035939 11 164 0.0 0.0 0.00 0.00 0.00 77
20260503035439 11 164 0.0 0.0 0.00 0.00 0.00 77
20260503034939 11 164 0.0 0.0 0.00 0.00 0.00 77
20260503034439 11 164 0.0 0.0 0.00 0.00 0.00 77
20260503033939 11 164 0.0 0.0 0.00 0.00 0.00 77
20260503033439 11 164 0.0 0.0 0.00 0.00 0.00 76
20260503032939 12 164 0.0 0.0 0.00 0.00 0.00 76
20260503032439 12 164 0.0 0.0 0.00 0.00 0.00 76
20260503031939 12 164 0.0 0.0 0.00 0.00 0.00 77
20260503031439 12 164 0.0 0.0 0.00 0.00 0.00 76
20260503030939 12 164 0.0 0.0 0.00 0.00 0.00 76
20260503030439 12 164 0.0 0.0 0.00 0.00 0.00 75
20260503025939 12 164 0.0 0.0 0.00 0.00 0.00 75
20260503025439 12 164 0.0 0.0 0.00 0.00 0.00 75
20260503024939 12 164 0.0 0.0 0.00 0.00 0.00 75
20260503024439 12 164 0.0 0.0 0.00 0.00 0.00 75
20260503023939 12 164 0.0 0.0 0.00 0.00 0.00 75
20260503023439 12 164 0.0 0.0 0.00 0.00 0.00 75
20260503022939 12 164 0.0 0.0 0.00 0.00 0.00 75
20260503022439 12 164 0.0 0.0 0.00 0.00 0.00 75
20260503021939 12 164 0.0 0.0 0.00 0.00 0.00 75
20260503021439 12 164 0.0 0.0 0.00 0.00 0.00 74
20260503020939 13 164 0.0 0.0 0.00 0.00 0.00 74
20260503020439 13 164 0.0 0.0 0.00 0.00 0.00 74
20260503015939 13 164 0.0 0.0 0.00 0.00 0.00 73
20260503015439 13 164 0.0 0.0 0.00 0.00 0.00 74
20260503014939 13 164 0.0 0.0 0.00 0.00 0.00 74
20260503014439 13 164 0.0 0.0 0.00 0.00 0.00 74
20260503013939 13 164 0.0 0.0 0.00 0.00 0.00 74
20260503013439 13 164 0.0 0.0 0.00 0.00 0.00 74
20260503012939 13 164 0.0 0.0 0.00 0.00 0.00 74
20260503012439 13 164 0.0 0.0 0.00 0.00 0.00 74
20260503011939 13 164 0.0 0.0 0.00 0.00 0.00 73
20260503011439 13 164 0.0 0.0 0.00 0.00 0.00 73
20260503010939 13 164 0.0 0.0 0.00 0.00 0.00 73
20260503010439 13 164 0.0 0.0 0.00 0.00 0.00 73
20260503005939 13 164 0.0 0.0 0.00 0.00 0.00 72
20260503005439 13 164 0.0 0.0 0.00 0.00 0.00 72
20260503004939 14 164 0.0 0.0 0.00 0.00 0.00 71
20260503004439 14 164 0.0 0.0 0.00 0.00 0.00 71
20260503003939 14 164 0.0 0.0 0.00 0.00 0.00 71
20260503003439 14 164 0.0 0.0 0.00 0.00 0.00 71
20260503002939 14 164 0.0 0.0 0.00 0.00 0.00 71
20260503002439 14 164 0.0 0.0 0.00 0.00 0.00 70
20260503001939 14 164 0.0 0.0 0.00 0.00 0.00 70
20260503001439 14 164 0.0 0.0 0.00 0.00 0.00 70
20260503000939 14 164 0.0 0.0 0.00 0.00 0.00 70
20260503000439 15 164 0.0 0.0 0.00 0.00 0.00 70
20260502235939 15 164 0.0 0.0 0.00 0.00 0.00 70
20260502235439 15 164 0.0 0.0 0.00 0.00 0.00 70
20260502234939 15 164 0.0 0.0 0.00 0.00 0.00 70
20260502234439 15 164 0.0 0.0 0.00 0.00 0.00 70